sat.trackr.live / text

‹ back to catalog

STARLINK-11678 [DTC]

NORAD 64326 · 2025-124K

PAYLOAD ACTIVE UNKNOWN

§ Identity

Operator
Country
US
Launch date
2025-06-10
Launch site
AFETR
Launch vehicle
Mass (kg)
RCS (m²)

Purposes: comms

External: N2YO · Heavens-Above · Gunter

§ Orbital elements

Epoch: 2026-05-25T02:56:00.252096Z

Period
91.67 min
Inclination
43.0008°
Eccentricity
0.0001143
Mean motion
15.70892023 rev/d
Perigee alt
355.6 km
Apogee alt
357.1 km
Semi-major
6,734.5 km
B*
1.3930e-3
RAAN
288.6451°
Arg perigee
279.6493°
Mean anomaly
80.4246°
Rev number
5,485

§ Raw data

STARLINK-11678 [DTC]1 64326U 25124K   26145.12222514  .00182666  00000+0  13930-2 0  99982 64326  43.0008 288.6451 0001143 279.6493  80.4246 15.70892023 54854

JSON: /api/v1/satellites/64326 · /tle

For live sub-satellite position, see the globe view (requires WebGL).

§ Visibility from observer

Set your observer location to see the next 7 days of passes ≥ 10°. The values pass through the URL so the page stays shareable.

No JS? Fill the form by hand. The geolocation button needs JavaScript.